Wetterdaten: aktuell Mittwoch, 05.10.2022 12:50
Datum Zeit Temp. 2m Temp. 5cm Feuchte A. Luftdruck Regen Wind Richtung Richtung Sonnenschein ET UV Solar Windben
05.10.2022 12:50 15,3 C 16,1 C 80 % 1013,9 hPa 0,0 l/m 9,7 km/h (2 Bft) S-SW 202 0 min 0,000 mm 0,7 UV-I 72 W/m 19,3 km/h (3 Bft)
05.10.2022 12:45 15,4 C 16,1 C 80 % 1013,9 hPa 0,0 l/m 9,7 km/h (2 Bft) SW 225 0 min 0,000 mm 0,7 UV-I 100 W/m 29,0 km/h (5 Bft)
05.10.2022 12:40 15,4 C 16,7 C 79 % 1013,9 hPa 0,0 l/m 8,0 km/h (2 Bft) S-SW 202 0 min 0,000 mm 0,7 UV-I 97 W/m 20,9 km/h (4 Bft)
05.10.2022 12:35 15,5 C 16,7 C 79 % 1013,9 hPa 0,0 l/m 9,7 km/h (2 Bft) SW 225 0 min 0,000 mm 0,8 UV-I 107 W/m 29,0 km/h (5 Bft)
05.10.2022 12:30 15,6 C 16,7 C 79 % 1013,8 hPa 0,0 l/m 12,9 km/h (3 Bft) SW 225 0 min 0,000 mm 0,9 UV-I 114 W/m 30,6 km/h (5 Bft)
05.10.2022 12:25 15,6 C 17,2 C 79 % 1013,9 hPa 0,0 l/m 9,7 km/h (2 Bft) S-SW 202 0 min 0,000 mm 0,9 UV-I 130 W/m 17,7 km/h (3 Bft)
05.10.2022 12:20 15,7 C 17,8 C 79 % 1013,9 hPa 0,0 l/m 11,3 km/h (2 Bft) S-SW 202 0 min 0,000 mm 1,0 UV-I 146 W/m 22,5 km/h (4 Bft)
05.10.2022 12:15 15,7 C 18,3 C 80 % 1014,0 hPa 0,0 l/m 11,3 km/h (2 Bft) S-SW 202 0 min 0,000 mm 1,2 UV-I 174 W/m 29,0 km/h (5 Bft)
05.10.2022 12:10 15,7 C 18,9 C 80 % 1014,0 hPa 0,0 l/m 8,0 km/h (2 Bft) S-SW 202 0 min 0,000 mm 1,3 UV-I 193 W/m 29,0 km/h (5 Bft)
05.10.2022 12:05 15,7 C 18,9 C 80 % 1013,9 hPa 0,0 l/m 11,3 km/h (2 Bft) S-SW 202 0 min 0,000 mm 1,5 UV-I 227 W/m 22,5 km/h (4 Bft)
05.10.2022 12:00 15,7 C 18,3 C 80 % 1014,0 hPa 0,0 l/m 9,7 km/h (2 Bft) S-SW 202 0 min 0,152 mm 1,3 UV-I 200 W/m 32,2 km/h (5 Bft)
05.10.2022 11:55 15,7 C 18,3 C 80 % 1014,0 hPa 0,0 l/m 11,3 km/h (2 Bft) S-SW 202 0 min 0,000 mm 1,2 UV-I 195 W/m 25,7 km/h (4 Bft)
05.10.2022 11:50 15,7 C 19,4 C 81 % 1014,0 hPa 0,0 l/m 9,7 km/h (2 Bft) S-SW 202 0 min 0,000 mm 1,4 UV-I 246 W/m 25,7 km/h (4 Bft)
05.10.2022 11:45 15,6 C 18,9 C 80 % 1014,1 hPa 0,0 l/m 9,7 km/h (2 Bft) SW 225 0 min 0,000 mm 1,5 UV-I 271 W/m 24,1 km/h (4 Bft)
05.10.2022 11:40 15,6 C 18,9 C 81 % 1014,1 hPa 0,0 l/m 11,3 km/h (2 Bft) S 180 0 min 0,000 mm 1,5 UV-I 281 W/m 20,9 km/h (4 Bft)
05.10.2022 11:35 15,5 C 18,3 C 81 % 1014,1 hPa 0,0 l/m 12,9 km/h (3 Bft) S-SW 202 0 min 0,000 mm 1,5 UV-I 271 W/m 29,0 km/h (5 Bft)
05.10.2022 11:30 15,4 C 18,9 C 81 % 1014,1 hPa 0,0 l/m 12,9 km/h (3 Bft) SW 225 0 min 0,000 mm 1,4 UV-I 269 W/m 32,2 km/h (5 Bft)
05.10.2022 11:25 15,3 C 18,9 C 83 % 1014,1 hPa 0,0 l/m 11,3 km/h (2 Bft) S-SW 202 0 min 0,000 mm 1,5 UV-I 262 W/m 25,7 km/h (4 Bft)
05.10.2022 11:20 15,1 C 18,9 C 83 % 1014,2 hPa 0,0 l/m 9,7 km/h (2 Bft) S-SW 202 0 min 0,000 mm 1,4 UV-I 257 W/m 27,4 km/h (4 Bft)
05.10.2022 11:15 14,9 C 18,9 C 84 % 1014,2 hPa 0,0 l/m 8,0 km/h (2 Bft) S-SW 202 0 min 0,000 mm 1,3 UV-I 232 W/m 19,3 km/h (3 Bft)
05.10.2022 11:10 14,8 C 17,2 C 84 % 1014,2 hPa 0,0 l/m 12,9 km/h (3 Bft) S-SW 202 0 min 0,000 mm 1,2 UV-I 220 W/m 27,4 km/h (4 Bft)
05.10.2022 11:05 14,7 C 17,2 C 85 % 1014,2 hPa 0,0 l/m 9,7 km/h (2 Bft) S 180 0 min 0,000 mm 1,1 UV-I 199 W/m 24,1 km/h (4 Bft)
05.10.2022 11:00 14,6 C 17,2 C 85 % 1014,4 hPa 0,0 l/m 8,0 km/h (2 Bft) S-SW 202 0 min 0,076 mm 1,0 UV-I 165 W/m 19,3 km/h (3 Bft)
05.10.2022 10:55 14,5 C 16,7 C 85 % 1014,3 hPa 0,0 l/m 9,7 km/h (2 Bft) S 180 0 min 0,000 mm 0,9 UV-I 176 W/m 22,5 km/h (4 Bft)
05.10.2022 10:50 14,4 C 16,7 C 85 % 1014,4 hPa 0,0 l/m 9,7 km/h (2 Bft) S-SW 202 0 min 0,000 mm 0,9 UV-I 148 W/m 20,9 km/h (4 Bft)
05.10.2022 10:45 14,4 C 16,7 C 85 % 1014,4 hPa 0,0 l/m 9,7 km/h (2 Bft) S-SW 202 0 min 0,000 mm 0,8 UV-I 142 W/m 20,9 km/h (4 Bft)
05.10.2022 10:40 14,4 C 16,1 C 85 % 1014,5 hPa 0,0 l/m 8,0 km/h (2 Bft) S-SW 202 0 min 0,000 mm 0,8 UV-I 137 W/m 22,5 km/h (4 Bft)
05.10.2022 10:35 14,3 C 16,7 C 85 % 1014,3 hPa 0,0 l/m 6,4 km/h (2 Bft) S-SW 202 0 min 0,000 mm 0,7 UV-I 134 W/m 14,5 km/h (3 Bft)
05.10.2022 10:30 14,2 C 16,1 C 85 % 1014,3 hPa 0,0 l/m 9,7 km/h (2 Bft) S-SW 202 0 min 0,000 mm 0,7 UV-I 135 W/m 19,3 km/h (3 Bft)
05.10.2022 10:25 14,2 C 16,1 C 85 % 1014,4 hPa 0,0 l/m 8,0 km/h (2 Bft) S-SW 202 0 min 0,000 mm 0,7 UV-I 134 W/m 17,7 km/h (3 Bft)
05.10.2022 10:20 14,1 C 16,1 C 86 % 1014,3 hPa 0,0 l/m 9,7 km/h (2 Bft) S-SW 202 0 min 0,000 mm 0,7 UV-I 137 W/m 19,3 km/h (3 Bft)
05.10.2022 10:15 13,9 C 16,1 C 86 % 1014,3 hPa 0,0 l/m 8,0 km/h (2 Bft) S-SW 202 0 min 0,000 mm 0,8 UV-I 132 W/m 16,1 km/h (3 Bft)
05.10.2022 10:10 13,8 C 15,6 C 86 % 1014,4 hPa 0,0 l/m 9,7 km/h (2 Bft) S-SW 202 0 min 0,000 mm 0,7 UV-I 135 W/m 20,9 km/h (4 Bft)
05.10.2022 10:05 13,7 C 15,6 C 86 % 1014,3 hPa 0,0 l/m 8,0 km/h (2 Bft) S-SW 202 0 min 0,000 mm 0,7 UV-I 139 W/m 16,1 km/h (3 Bft)
05.10.2022 10:00 13,6 C 15,0 C 86 % 1014,3 hPa 0,0 l/m 8,0 km/h (2 Bft) S-SW 202 0 min 0,051 mm 0,7 UV-I 130 W/m 20,9 km/h (4 Bft)
05.10.2022 09:55 13,6 C 14,4 C 86 % 1014,1 hPa 0,0 l/m 8,0 km/h (2 Bft) S 180 0 min 0,000 mm 0,7 UV-I 72 W/m 20,9 km/h (4 Bft)
05.10.2022 09:50 13,6 C 14,4 C 86 % 1014,3 hPa 0,0 l/m 9,7 km/h (2 Bft) S-SW 202 0 min 0,000 mm 0,0 UV-I 54 W/m 25,7 km/h (4 Bft)
05.10.2022 09:45 13,6 C 14,4 C 86 % 1014,3 hPa 0,0 l/m 6,4 km/h (2 Bft) S-SW 202 0 min 0,000 mm 0,0 UV-I 56 W/m 25,7 km/h (4 Bft)
05.10.2022 09:40 13,6 C 14,4 C 86 % 1014,3 hPa 0,0 l/m 6,4 km/h (2 Bft) S-SW 202 0 min 0,000 mm 0,5 UV-I 83 W/m 14,5 km/h (3 Bft)
05.10.2022 09:35 13,5 C 14,4 C 86 % 1014,2 hPa 0,0 l/m 11,3 km/h (2 Bft) S-SW 202 0 min 0,000 mm 0,5 UV-I 102 W/m 19,3 km/h (3 Bft)
05.10.2022 09:30 13,5 C 14,4 C 86 % 1014,3 hPa 0,0 l/m 8,0 km/h (2 Bft) S-SW 202 0 min 0,000 mm 0,5 UV-I 116 W/m 20,9 km/h (4 Bft)
05.10.2022 09:25 13,4 C 14,4 C 87 % 1014,1 hPa 0,0 l/m 8,0 km/h (2 Bft) S 180 0 min 0,000 mm 0,5 UV-I 118 W/m 20,9 km/h (4 Bft)
05.10.2022 09:20 13,3 C 14,4 C 87 % 1014,2 hPa 0,0 l/m 8,0 km/h (2 Bft) S 180 0 min 0,000 mm 0,5 UV-I 116 W/m 16,1 km/h (3 Bft)
05.10.2022 09:15 13,3 C 14,4 C 87 % 1014,1 hPa 0,0 l/m 8,0 km/h (2 Bft) S 180 0 min 0,000 mm 0,5 UV-I 111 W/m 17,7 km/h (3 Bft)
05.10.2022 09:10 13,2 C 14,4 C 87 % 1014,3 hPa 0,0 l/m 8,0 km/h (2 Bft) S 180 0 min 0,000 mm 0,0 UV-I 97 W/m 16,1 km/h (3 Bft)
05.10.2022 09:05 13,2 C 14,4 C 87 % 1014,3 hPa 0,0 l/m 6,4 km/h (2 Bft) S 180 0 min 0,000 mm 0,0 UV-I 88 W/m 16,1 km/h (3 Bft)
05.10.2022 09:00 13,1 C 13,9 C 87 % 1014,3 hPa 0,0 l/m 6,4 km/h (2 Bft) S-SW 202 0 min 0,025 mm 0,0 UV-I 81 W/m 17,7 km/h (3 Bft)
05.10.2022 08:55 13,1 C 13,9 C 87 % 1014,4 hPa 0,0 l/m 8,0 km/h (2 Bft) S 180 0 min 0,000 mm 0,0 UV-I 76 W/m 16,1 km/h (3 Bft)
05.10.2022 08:50 13,1 C 13,9 C 87 % 1014,4 hPa 0,0 l/m 6,4 km/h (2 Bft) S-SW 202 0 min 0,000 mm 0,0 UV-I 74 W/m 17,7 km/h (3 Bft)
05.10.2022 08:45 13,0 C 13,3 C 87 % 1014,4 hPa 0,0 l/m 6,4 km/h (2 Bft) S-SW 202 0 min 0,000 mm 0,0 UV-I 65 W/m 11,3 km/h (2 Bft)
05.10.2022 08:40 12,9 C 13,3 C 87 % 1014,3 hPa 0,0 l/m 6,4 km/h (2 Bft) S 180 0 min 0,000 mm 0,0 UV-I 54 W/m 12,9 km/h (3 Bft)
05.10.2022 08:35 12,9 C 13,3 C 87 % 1014,3 hPa 0,0 l/m 8,0 km/h (2 Bft) S 180 0 min 0,000 mm 0,0 UV-I 47 W/m 19,3 km/h (3 Bft)
05.10.2022 08:30 12,9 C 13,3 C 87 % 1014,2 hPa 0,0 l/m 8,0 km/h (2 Bft) S 180 0 min 0,000 mm 0,0 UV-I 42 W/m 16,1 km/h (3 Bft)
05.10.2022 08:25 12,9 C 12,8 C 87 % 1014,1 hPa 0,0 l/m 6,4 km/h (2 Bft) S 180 0 min 0,000 mm 0,0 UV-I 40 W/m 19,3 km/h (3 Bft)
05.10.2022 08:20 12,9 C 12,8 C 87 % 1014,3 hPa 0,0 l/m 6,4 km/h (2 Bft) S 180 0 min 0,000 mm 0,0 UV-I 33 W/m 14,5 km/h (3 Bft)
05.10.2022 08:15 12,9 C 12,8 C 87 % 1014,3 hPa 0,0 l/m 8,0 km/h (2 Bft) S 180 0 min 0,000 mm 0,0 UV-I 28 W/m 16,1 km/h (3 Bft)
05.10.2022 08:10 12,9 C 12,8 C 87 % 1014,3 hPa 0,0 l/m 6,4 km/h (2 Bft) S 180 0 min 0,000 mm 0,0 UV-I 23 W/m 12,9 km/h (3 Bft)
05.10.2022 08:05 12,9 C 12,8 C 87 % 1014,3 hPa 0,0 l/m 8,0 km/h (2 Bft) S 180 0 min 0,000 mm 0,0 UV-I 16 W/m 16,1 km/h (3 Bft)
05.10.2022 08:00 12,9 C 12,8 C 87 % 1014,4 hPa 0,0 l/m 6,4 km/h (2 Bft) S 180 0 min 0,025 mm 0,0 UV-I 11 W/m 14,5 km/h (3 Bft)
05.10.2022 07:55 12,8 C 12,8 C 86 % 1014,3 hPa 0,0 l/m 6,4 km/h (2 Bft) S 180 0 min 0,000 mm 0,0 UV-I 9 W/m 16,1 km/h (3 Bft)
05.10.2022 07:50 12,8 C 12,8 C 86 % 1014,4 hPa 0,0 l/m 8,0 km/h (2 Bft) S 180 0 min 0,000 mm 0,0 UV-I 9 W/m 14,5 km/h (3 Bft)
05.10.2022 07:45 12,8 C 12,8 C 86 % 1014,3 hPa 0,0 l/m 6,4 km/h (2 Bft) S-SW 202 0 min 0,000 mm 0,0 UV-I 7 W/m 14,5 km/h (3 Bft)
05.10.2022 07:40 12,8 C 12,8 C 86 % 1014,3 hPa 0,0 l/m 6,4 km/h (2 Bft) S 180 0 min 0,000 mm 0,0 UV-I 5 W/m 11,3 km/h (2 Bft)
05.10.2022 07:35 12,8 C 12,8 C 86 % 1014,4 hPa 0,0 l/m 6,4 km/h (2 Bft) S 180 0 min 0,000 mm 0,0 UV-I 0 W/m 14,5 km/h (3 Bft)
05.10.2022 07:30 12,8 C 12,8 C 86 % 1014,4 hPa 0,0 l/m 6,4 km/h (2 Bft) S 180 0 min 0,000 mm 0,0 UV-I 0 W/m 16,1 km/h (3 Bft)
05.10.2022 07:25 12,8 C 12,8 C 86 % 1014,5 hPa 0,0 l/m 6,4 km/h (2 Bft) S 180 0 min 0,000 mm 0,0 UV-I 0 W/m 12,9 km/h (3 Bft)
05.10.2022 07:20 12,8 C 12,8 C 86 % 1014,5 hPa 0,0 l/m 6,4 km/h (2 Bft) S 180 0 min 0,000 mm 0,0 UV-I 0 W/m 12,9 km/h (3 Bft)
05.10.2022 07:15 12,8 C 12,8 C 86 % 1014,5 hPa 0,0 l/m 6,4 km/h (2 Bft) S 180 0 min 0,000 mm 0,0 UV-I 0 W/m 14,5 km/h (3 Bft)
05.10.2022 07:10 12,8 C 12,8 C 86 % 1014,6 hPa 0,0 l/m 6,4 km/h (2 Bft) S-SW 202 0 min 0,000 mm 0,0 UV-I 0 W/m 14,5 km/h (3 Bft)
05.10.2022 07:05 12,8 C 12,8 C 86 % 1014,6 hPa 0,0 l/m 8,0 km/h (2 Bft) S 180 0 min 0,000 mm 0,0 UV-I 0 W/m 14,5 km/h (3 Bft)
05.10.2022 07:00 12,8 C 12,2 C 86 % 1014,6 hPa 0,0 l/m 4,8 km/h (1 Bft) S 180 0 min 0,025 mm 0,0 UV-I 0 W/m 14,5 km/h (3 Bft)
05.10.2022 06:55 12,8 C 12,2 C 85 % 1014,6 hPa 0,0 l/m 4,8 km/h (1 Bft) S-SW 202 0 min 0,000 mm 0,0 UV-I 0 W/m 12,9 km/h (3 Bft)
05.10.2022 06:50 12,8 C 12,8 C 85 % 1014,6 hPa 0,0 l/m 6,4 km/h (2 Bft) S-SW 202 0 min 0,000 mm 0,0 UV-I 0 W/m 16,1 km/h (3 Bft)
05.10.2022 06:45 12,8 C 12,8 C 85 % 1014,6 hPa 0,0 l/m 8,0 km/h (2 Bft) S-SW 202 0 min 0,000 mm 0,0 UV-I 0 W/m 14,5 km/h (3 Bft)
05.10.2022 06:40 12,8 C 12,8 C 85 % 1014,6 hPa 0,0 l/m 4,8 km/h (1 Bft) S 180 0 min 0,000 mm 0,0 UV-I 0 W/m 11,3 km/h (2 Bft)
05.10.2022 06:35 12,8 C 12,8 C 85 % 1014,7 hPa 0,0 l/m 4,8 km/h (1 Bft) S 180 0 min 0,000 mm 0,0 UV-I 0 W/m 9,7 km/h (2 Bft)
05.10.2022 06:30 12,8 C 12,8 C 85 % 1014,8 hPa 0,0 l/m 6,4 km/h (2 Bft) S 180 0 min 0,000 mm 0,0 UV-I 0 W/m 14,5 km/h (3 Bft)
05.10.2022 06:25 12,8 C 12,8 C 85 % 1014,8 hPa 0,0 l/m 6,4 km/h (2 Bft) S-SW 202 0 min 0,000 mm 0,0 UV-I 0 W/m 14,5 km/h (3 Bft)
05.10.2022 06:20 12,8 C 12,8 C 85 % 1014,7 hPa 0,0 l/m 8,0 km/h (2 Bft) S 180 0 min 0,000 mm 0,0 UV-I 0 W/m 14,5 km/h (3 Bft)
05.10.2022 06:15 12,8 C 12,8 C 85 % 1014,8 hPa 0,0 l/m 4,8 km/h (1 Bft) S 180 0 min 0,000 mm 0,0 UV-I 0 W/m 11,3 km/h (2 Bft)
05.10.2022 06:10 12,8 C 12,8 C 85 % 1014,7 hPa 0,0 l/m 4,8 km/h (1 Bft) S 180 0 min 0,000 mm 0,0 UV-I 0 W/m 11,3 km/h (2 Bft)
05.10.2022 06:05 12,8 C 12,8 C 85 % 1014,7 hPa 0,0 l/m 6,4 km/h (2 Bft) S 180 0 min 0,000 mm 0,0 UV-I 0 W/m 12,9 km/h (3 Bft)
05.10.2022 06:00 12,8 C 12,8 C 85 % 1014,7 hPa 0,0 l/m 6,4 km/h (2 Bft) S 180 0 min 0,025 mm 0,0 UV-I 0 W/m 19,3 km/h (3 Bft)
05.10.2022 05:55 12,8 C 12,8 C 85 % 1014,8 hPa 0,0 l/m 6,4 km/h (2 Bft) S 180 0 min 0,000 mm 0,0 UV-I 0 W/m 14,5 km/h (3 Bft)
05.10.2022 05:50 12,8 C 12,8 C 85 % 1014,8 hPa 0,0 l/m 6,4 km/h (2 Bft) S-SW 202 0 min 0,000 mm 0,0 UV-I 0 W/m 12,9 km/h (3 Bft)
05.10.2022 05:45 12,8 C 12,8 C 84 % 1014,8 hPa 0,0 l/m 6,4 km/h (2 Bft) S 180 0 min 0,000 mm 0,0 UV-I 0 W/m 14,5 km/h (3 Bft)
05.10.2022 05:40 12,8 C 12,8 C 84 % 1014,8 hPa 0,0 l/m 6,4 km/h (2 Bft) S 180 0 min 0,000 mm 0,0 UV-I 0 W/m 12,9 km/h (3 Bft)
05.10.2022 05:35 12,8 C 12,8 C 84 % 1014,9 hPa 0,0 l/m 6,4 km/h (2 Bft) S 180 0 min 0,000 mm 0,0 UV-I 0 W/m 16,1 km/h (3 Bft)
05.10.2022 05:30 12,8 C 12,8 C 84 % 1015,0 hPa 0,0 l/m 6,4 km/h (2 Bft) S-SW 202 0 min 0,000 mm 0,0 UV-I 0 W/m 16,1 km/h (3 Bft)
05.10.2022 05:25 12,8 C 12,8 C 84 % 1015,1 hPa 0,0 l/m 4,8 km/h (1 Bft) S-SW 202 0 min 0,000 mm 0,0 UV-I 0 W/m 11,3 km/h (2 Bft)
05.10.2022 05:20 12,8 C 12,8 C 84 % 1015,1 hPa 0,0 l/m 6,4 km/h (2 Bft) S-SW 202 0 min 0,000 mm 0,0 UV-I 0 W/m 12,9 km/h (3 Bft)
05.10.2022 05:15 12,8 C 12,8 C 84 % 1015,0 hPa 0,0 l/m 4,8 km/h (1 Bft) S-SW 202 0 min 0,000 mm 0,0 UV-I 0 W/m 9,7 km/h (2 Bft)
05.10.2022 05:10 12,8 C 12,2 C 84 % 1015,0 hPa 0,0 l/m 4,8 km/h (1 Bft) S-SW 202 0 min 0,000 mm 0,0 UV-I 0 W/m 11,3 km/h (2 Bft)
05.10.2022 05:05 12,9 C 12,2 C 84 % 1015,0 hPa 0,0 l/m 4,8 km/h (1 Bft) S-SW 202 0 min 0,000 mm 0,0 UV-I 0 W/m 19,3 km/h (3 Bft)
05.10.2022 05:00 12,9 C 12,2 C 84 % 1015,0 hPa 0,0 l/m 8,0 km/h (2 Bft) S 180 0 min 0,025 mm 0,0 UV-I 0 W/m 20,9 km/h (4 Bft)
05.10.2022 04:55 12,9 C 12,2 C 84 % 1015,1 hPa 0,0 l/m 6,4 km/h (2 Bft) S 180 0 min 0,000 mm 0,0 UV-I 0 W/m 19,3 km/h (3 Bft)
05.10.2022 04:50 13,0 C 12,8 C 84 % 1015,2 hPa 0,0 l/m 6,4 km/h (2 Bft) S 180 0 min 0,000 mm 0,0 UV-I 0 W/m 12,9 km/h (3 Bft)
05.10.2022 04:45 13,0 C 12,8 C 84 % 1015,3 hPa 0,0 l/m 8,0 km/h (2 Bft) S 180 0 min 0,000 mm 0,0 UV-I 0 W/m 16,1 km/h (3 Bft)
05.10.2022 04:40 13,1 C 12,8 C 83 % 1015,3 hPa 0,0 l/m 6,4 km/h (2 Bft) S 180 0 min 0,000 mm 0,0 UV-I 0 W/m 17,7 km/h (3 Bft)
05.10.2022 04:35 13,1 C 12,8 C 83 % 1015,4 hPa 0,0 l/m 8,0 km/h (2 Bft) S 180 0 min 0,000 mm 0,0 UV-I 0 W/m 17,7 km/h (3 Bft)
05.10.2022 04:30 13,1 C 12,8 C 83 % 1015,4 hPa 0,0 l/m 6,4 km/h (2 Bft) S-SW 202 0 min 0,000 mm 0,0 UV-I 0 W/m 14,5 km/h (3 Bft)
05.10.2022 04:25 13,1 C 12,8 C 83 % 1015,4 hPa 0,0 l/m 6,4 km/h (2 Bft) S 180 0 min 0,000 mm 0,0 UV-I 0 W/m 11,3 km/h (2 Bft)
05.10.2022 04:20 13,1 C 12,8 C 83 % 1015,4 hPa 0,0 l/m 6,4 km/h (2 Bft) S-SW 202 0 min 0,000 mm 0,0 UV-I 0 W/m 12,9 km/h (3 Bft)
05.10.2022 04:15 13,1 C 12,8 C 83 % 1015,4 hPa 0,0 l/m 6,4 km/h (2 Bft) S-SW 202 0 min 0,000 mm 0,0 UV-I 0 W/m 12,9 km/h (3 Bft)
05.10.2022 04:10 13,2 C 12,8 C 83 % 1015,5 hPa 0,0 l/m 8,0 km/h (2 Bft) S-SW 202 0 min 0,000 mm 0,0 UV-I 0 W/m 14,5 km/h (3 Bft)
05.10.2022 04:05 13,2 C 12,8 C 83 % 1015,6 hPa 0,0 l/m 6,4 km/h (2 Bft) S 180 0 min 0,000 mm 0,0 UV-I 0 W/m 12,9 km/h (3 Bft)
05.10.2022 04:00 13,2 C 12,8 C 83 % 1015,6 hPa 0,0 l/m 8,0 km/h (2 Bft) S-SW 202 0 min 0,025 mm 0,0 UV-I 0 W/m 19,3 km/h (3 Bft)
05.10.2022 03:55 13,2 C 12,8 C 83 % 1015,5 hPa 0,0 l/m 6,4 km/h (2 Bft) S-SW 202 0 min 0,000 mm 0,0 UV-I 0 W/m 12,9 km/h (3 Bft)
05.10.2022 03:50 13,2 C 12,8 C 83 % 1015,6 hPa 0,0 l/m 6,4 km/h (2 Bft) S-SW 202 0 min 0,000 mm 0,0 UV-I 0 W/m 14,5 km/h (3 Bft)
05.10.2022 03:45 13,2 C 12,8 C 83 % 1015,6 hPa 0,0 l/m 8,0 km/h (2 Bft) S-SW 202 0 min 0,000 mm 0,0 UV-I 0 W/m 14,5 km/h (3 Bft)
05.10.2022 03:40 13,2 C 12,8 C 83 % 1015,6 hPa 0,0 l/m 6,4 km/h (2 Bft) S-SW 202 0 min 0,000 mm 0,0 UV-I 0 W/m 12,9 km/h (3 Bft)
05.10.2022 03:35 13,3 C 12,8 C 83 % 1015,6 hPa 0,0 l/m 4,8 km/h (1 Bft) S 180 0 min 0,000 mm 0,0 UV-I 0 W/m 17,7 km/h (3 Bft)
05.10.2022 03:30 13,3 C 12,8 C 83 % 1015,8 hPa 0,0 l/m 6,4 km/h (2 Bft) S 180 0 min 0,000 mm 0,0 UV-I 0 W/m 14,5 km/h (3 Bft)
05.10.2022 03:25 13,3 C 12,8 C 83 % 1015,8 hPa 0,0 l/m 8,0 km/h (2 Bft) S 180 0 min 0,000 mm 0,0 UV-I 0 W/m 14,5 km/h (3 Bft)
05.10.2022 03:20 13,3 C 13,3 C 83 % 1015,8 hPa 0,0 l/m 6,4 km/h (2 Bft) S-SW 202 0 min 0,000 mm 0,0 UV-I 0 W/m 16,1 km/h (3 Bft)
05.10.2022 03:15 13,3 C 13,3 C 83 % 1015,8 hPa 0,0 l/m 6,4 km/h (2 Bft) S-SW 202 0 min 0,000 mm 0,0 UV-I 0 W/m 11,3 km/h (2 Bft)
05.10.2022 03:10 13,4 C 13,3 C 82 % 1015,8 hPa 0,0 l/m 6,4 km/h (2 Bft) S 180 0 min 0,000 mm 0,0 UV-I 0 W/m 16,1 km/h (3 Bft)
05.10.2022 03:05 13,4 C 13,3 C 82 % 1015,8 hPa 0,0 l/m 8,0 km/h (2 Bft) S 180 0 min 0,000 mm 0,0 UV-I 0 W/m 19,3 km/h (3 Bft)
05.10.2022 03:00 13,4 C 13,3 C 82 % 1016,1 hPa 0,0 l/m 6,4 km/h (2 Bft) S 180 0 min 0,025 mm 0,0 UV-I 0 W/m 11,3 km/h (2 Bft)
05.10.2022 02:55 13,4 C 13,3 C 82 % 1016,1 hPa 0,0 l/m 8,0 km/h (2 Bft) S 180 0 min 0,000 mm 0,0 UV-I 0 W/m 14,5 km/h (3 Bft)
05.10.2022 02:50 13,4 C 13,3 C 82 % 1016,2 hPa 0,0 l/m 8,0 km/h (2 Bft) S-SW 202 0 min 0,000 mm 0,0 UV-I 0 W/m 17,7 km/h (3 Bft)
05.10.2022 02:45 13,3 C 13,3 C 82 % 1016,2 hPa 0,0 l/m 6,4 km/h (2 Bft) S-SW 202 0 min 0,000 mm 0,0 UV-I 0 W/m 12,9 km/h (3 Bft)
05.10.2022 02:40 13,3 C 13,3 C 82 % 1016,2 hPa 0,0 l/m 4,8 km/h (1 Bft) S-SW 202 0 min 0,000 mm 0,0 UV-I 0 W/m 16,1 km/h (3 Bft)
05.10.2022 02:35 13,3 C 12,8 C 82 % 1016,3 hPa 0,0 l/m 4,8 km/h (1 Bft) S-SW 202 0 min 0,000 mm 0,0 UV-I 0 W/m 12,9 km/h (3 Bft)
05.10.2022 02:30 13,2 C 12,8 C 82 % 1016,3 hPa 0,0 l/m 6,4 km/h (2 Bft) S-SW 202 0 min 0,000 mm 0,0 UV-I 0 W/m 14,5 km/h (3 Bft)
05.10.2022 02:25 13,2 C 12,8 C 82 % 1016,4 hPa 0,0 l/m 4,8 km/h (1 Bft) S-SW 202 0 min 0,000 mm 0,0 UV-I 0 W/m 9,7 km/h (2 Bft)
05.10.2022 02:20 13,2 C 12,8 C 82 % 1016,4 hPa 0,0 l/m 3,2 km/h (1 Bft) SW 225 0 min 0,000 mm 0,0 UV-I 0 W/m 9,7 km/h (2 Bft)
05.10.2022 02:15 13,2 C 12,8 C 82 % 1016,4 hPa 0,0 l/m 3,2 km/h (1 Bft) SW 225 0 min 0,000 mm 0,0 UV-I 0 W/m 8,0 km/h (2 Bft)
05.10.2022 02:10 13,2 C 12,8 C 82 % 1016,4 hPa 0,0 l/m 3,2 km/h (1 Bft) S-SW 202 0 min 0,000 mm 0,0 UV-I 0 W/m 9,7 km/h (2 Bft)
05.10.2022 02:05 13,1 C 12,8 C 82 % 1016,4 hPa 0,0 l/m 4,8 km/h (1 Bft) S-SW 202 0 min 0,000 mm 0,0 UV-I 0 W/m 12,9 km/h (3 Bft)
05.10.2022 02:00 13,1 C 12,8 C 82 % 1016,4 hPa 0,0 l/m 4,8 km/h (1 Bft) SW 225 0 min 0,025 mm 0,0 UV-I 0 W/m 16,1 km/h (3 Bft)
05.10.2022 01:55 13,2 C 12,8 C 82 % 1016,5 hPa 0,0 l/m 3,2 km/h (1 Bft) S-SW 202 0 min 0,000 mm 0,0 UV-I 0 W/m 6,4 km/h (2 Bft)
05.10.2022 01:50 13,2 C 12,8 C 82 % 1016,5 hPa 0,0 l/m 4,8 km/h (1 Bft) S-SW 202 0 min 0,000 mm 0,0 UV-I 0 W/m 11,3 km/h (2 Bft)
05.10.2022 01:45 13,2 C 12,8 C 82 % 1016,5 hPa 0,0 l/m 4,8 km/h (1 Bft) S-SW 202 0 min 0,000 mm 0,0 UV-I 0 W/m 11,3 km/h (2 Bft)
05.10.2022 01:40 13,2 C 12,8 C 82 % 1016,5 hPa 0,0 l/m 6,4 km/h (2 Bft) S 180 0 min 0,000 mm 0,0 UV-I 0 W/m 12,9 km/h (3 Bft)
05.10.2022 01:35 13,2 C 12,8 C 82 % 1016,5 hPa 0,0 l/m 6,4 km/h (2 Bft) S 180 0 min 0,000 mm 0,0 UV-I 0 W/m 16,1 km/h (3 Bft)
05.10.2022 01:30 13,2 C 12,8 C 82 % 1016,5 hPa 0,0 l/m 6,4 km/h (2 Bft) S 180 0 min 0,000 mm 0,0 UV-I 0 W/m 16,1 km/h (3 Bft)
05.10.2022 01:25 13,1 C 12,8 C 82 % 1016,6 hPa 0,0 l/m 6,4 km/h (2 Bft) S-SW 202 0 min 0,000 mm 0,0 UV-I 0 W/m 17,7 km/h (3 Bft)
05.10.2022 01:20 13,0 C 12,8 C 83 % 1016,7 hPa 0,0 l/m 6,4 km/h (2 Bft) S 180 0 min 0,000 mm 0,0 UV-I 0 W/m 14,5 km/h (3 Bft)
05.10.2022 01:15 12,9 C 12,8 C 83 % 1016,7 hPa 0,0 l/m 6,4 km/h (2 Bft) S-SW 202 0 min 0,000 mm 0,0 UV-I 0 W/m 19,3 km/h (3 Bft)
05.10.2022 01:10 12,8 C 12,8 C 84 % 1016,8 hPa 0,0 l/m 6,4 km/h (2 Bft) S-SW 202 0 min 0,000 mm 0,0 UV-I 0 W/m 14,5 km/h (3 Bft)
05.10.2022 01:05 12,7 C 12,8 C 84 % 1016,7 hPa 0,0 l/m 6,4 km/h (2 Bft) S-SW 202 0 min 0,000 mm 0,0 UV-I 0 W/m 16,1 km/h (3 Bft)
05.10.2022 01:00 12,5 C 12,2 C 85 % 1016,8 hPa 0,0 l/m 4,8 km/h (1 Bft) S-SW 202 0 min 0,025 mm 0,0 UV-I 0 W/m 12,9 km/h (3 Bft)
05.10.2022 00:55 12,4 C 11,7 C 85 % 1016,8 hPa 0,0 l/m 6,4 km/h (2 Bft) S-SW 202 0 min 0,000 mm 0,0 UV-I 0 W/m 16,1 km/h (3 Bft)
05.10.2022 00:50 12,3 C 11,7 C 85 % 1016,8 hPa 0,0 l/m 4,8 km/h (1 Bft) S 180 0 min 0,000 mm 0,0 UV-I 0 W/m 14,5 km/h (3 Bft)
05.10.2022 00:45 12,3 C 11,7 C 85 % 1016,8 hPa 0,0 l/m 6,4 km/h (2 Bft) S-SW 202 0 min 0,000 mm 0,0 UV-I 0 W/m 12,9 km/h (3 Bft)
05.10.2022 00:40 12,4 C 11,7 C 85 % 1016,9 hPa 0,0 l/m 4,8 km/h (1 Bft) S-SW 202 0 min 0,000 mm 0,0 UV-I 0 W/m 12,9 km/h (3 Bft)
05.10.2022 00:35 12,4 C 11,7 C 85 % 1017,0 hPa 0,0 l/m 6,4 km/h (2 Bft) S 180 0 min 0,000 mm 0,0 UV-I 0 W/m 11,3 km/h (2 Bft)
05.10.2022 00:30 12,4 C 11,7 C 85 % 1017,0 hPa 0,0 l/m 4,8 km/h (1 Bft) S 180 0 min 0,000 mm 0,0 UV-I 0 W/m 11,3 km/h (2 Bft)
05.10.2022 00:25 12,3 C 11,7 C 86 % 1017,1 hPa 0,0 l/m 6,4 km/h (2 Bft) S 180 0 min 0,000 mm 0,0 UV-I 0 W/m 16,1 km/h (3 Bft)
05.10.2022 00:20 12,3 C 11,7 C 86 % 1017,1 hPa 0,0 l/m 4,8 km/h (1 Bft) S 180 0 min 0,000 mm 0,0 UV-I 0 W/m 11,3 km/h (2 Bft)
05.10.2022 00:15 12,3 C 11,7 C 86 % 1017,2 hPa 0,0 l/m 4,8 km/h (1 Bft) S 180 0 min 0,000 mm 0,0 UV-I 0 W/m 11,3 km/h (2 Bft)
05.10.2022 00:10 12,3 C 11,7 C 86 % 1017,2 hPa 0,0 l/m 4,8 km/h (1 Bft) S 180 0 min 0,000 mm 0,0 UV-I 0 W/m 14,5 km/h (3 Bft)
05.10.2022 00:05 12,3 C 11,7 C 86 % 1017,3 hPa 0,0 l/m 4,8 km/h (1 Bft) S-SW 202 0 min 0,000 mm 0,0 UV-I 0 W/m 11,3 km/h (2 Bft)
05.10.2022 00:00 12,3 C 11,7 C 86 % 1017,3 hPa 0,0 l/m 4,8 km/h (1 Bft) S 180 0 min 0,000 mm 0,0 UV-I 0 W/m 16,1 km/h (3 Bft)
_ Min-Zeit 00:00 00:00 12:20 12:30 - 01:55 - - - - - - 01:55
Minimum _ 12,3 C 11,7 C 79 % 1013,8 hPa - 3,2 km/h (1 Bft) - - - - - - 6,4 km/h (2 Bft)
_ Max-Zeit 12:15 11:50 08:00 00:00 00:00 11:10 - - 00:00 12:00 11:25 11:40 11:30
Maximum _ 15,8 C 19,4 C 87 % 1017,3 hPa 0,0 l/m 12,9 km/h
S-SW (3 Bft)
- - 0 min 0,152 mm 1,5 UV-I 281 W/m 32,2 km/h
S-SW (5 Bft)
Durchschnitt _ 13,4 C 13,9 C 84 % 1015,1 hPa #0,0 l/m 7,1 km/h (2 Bft) S-SW - #0 min. #0,504 mm 0,9 UV-I 123 W/m 16,6 km/h (3 Bft)